SL-16 R/B (25400 NORAD) Tracking and Keplerian Element Data

This shows tracking and keplerian element data for the satellite.

Feedback or suggestion? Click here.




ElementValue
Catalog25400
NameSL-16 R/B
Epoch Orbit32685
Epoch Day12.83048371
Epoch Year2024
RAAN314.404
Inclination98.7298
Eccentricity0.0010568
Argument of Perigee134.3454
Mean Anonmoly225.8593
Mean Motion14.25686565
Decay Rate1.49E-06
L11 25400U 98043G 24012.83048371 .00000149 00000+0 81432-4 0 9993
L22 25400 98.7298 314.4040 0010568 134.3454 225.8593 14.25686565326852



Live tracking and technical data element details for SL-16 R/B (NORAD 25400). SL-16 R/B can be tracked NOW for your location showing map with azimuth and elevation plus other details from your city location.







IsCatalogInMostPopularTable: catalog: 25400, numindb: 385
Update: records affected: 1



GetName: 25400 SL-16 R/B

Hit Count: updated at: Fri, 19 Apr 2024 13:21:41 GMT